Private Wetterstation Sandau
Wetterdaten: Dienstag, 08.01.2013
Datum Zeit Temp. A. Feuchte A. Luftdruck Regen Wind Richtung Richtung Taupunkt Windchill
08.01.2013 00:01 5,6 C 93 % 1026,0 hPa 0,0 l/m 1,8 km/h (1 Bft) SW 225 4,6 C 5,6 C
08.01.2013 00:06 5,6 C 93 % 1025,7 hPa 0,0 l/m 0,0 km/h (0 Bft) S-SW 202 4,6 C 5,6 C
08.01.2013 00:11 5,6 C 93 % 1025,7 hPa 0,0 l/m 0,0 km/h (0 Bft) SW 225 4,6 C 5,6 C
08.01.2013 00:16 5,6 C 93 % 1025,8 hPa 0,0 l/m 4,3 km/h (1 Bft) SW 225 4,6 C 5,6 C
08.01.2013 00:21 5,6 C 93 % 1025,8 hPa 0,0 l/m 4,3 km/h (1 Bft) S-SW 202 4,6 C 5,6 C
08.01.2013 00:26 5,6 C 93 % 1025,6 hPa 0,0 l/m 4,3 km/h (1 Bft) SW 225 4,6 C 5,6 C
08.01.2013 00:31 5,6 C 93 % 1025,7 hPa 0,0 l/m 4,0 km/h (1 Bft) SW 225 4,6 C 5,6 C
08.01.2013 00:36 5,6 C 93 % 1025,7 hPa 0,0 l/m 1,4 km/h (1 Bft) S-SO 157 4,6 C 5,6 C
08.01.2013 00:41 5,6 C 93 % 1025,5 hPa 0,0 l/m 2,5 km/h (1 Bft) SW 225 4,6 C 5,6 C
08.01.2013 00:46 5,6 C 93 % 1025,4 hPa 0,0 l/m 4,7 km/h (1 Bft) S-SW 202 4,6 C 4,9 C
08.01.2013 00:51 5,6 C 93 % 1025,4 hPa 0,0 l/m 2,5 km/h (1 Bft) S-SO 157 4,6 C 5,6 C
08.01.2013 00:56 5,6 C 93 % 1025,4 hPa 0,0 l/m 5,0 km/h (1 Bft) SW 225 4,6 C 4,8 C
08.01.2013 01:01 5,6 C 93 % 1025,2 hPa 0,0 l/m 3,2 km/h (1 Bft) S 180 4,6 C 5,6 C
08.01.2013 01:06 5,6 C 93 % 1025,1 hPa 0,0 l/m 7,6 km/h (2 Bft) S-SW 202 4,6 C 3,9 C
08.01.2013 01:11 5,6 C 93 % 1025,1 hPa 0,5 l/m 2,5 km/h (1 Bft) S 180 4,6 C 5,6 C
08.01.2013 01:16 5,6 C 93 % 1024,8 hPa 0,0 l/m 4,3 km/h (1 Bft) S-SW 202 4,6 C 5,6 C
08.01.2013 01:21 5,7 C 93 % 1024,8 hPa 0,0 l/m 6,1 km/h (2 Bft) SW 225 4,7 C 4,5 C
08.01.2013 01:26 5,6 C 93 % 1024,6 hPa 0,0 l/m 4,3 km/h (1 Bft) S-SW 202 4,6 C 5,6 C
08.01.2013 01:31 5,6 C 93 % 1024,7 hPa 0,0 l/m 5,8 km/h (2 Bft) W-SW 247 4,6 C 4,5 C
08.01.2013 01:36 5,7 C 93 % 1024,7 hPa 0,0 l/m 9,4 km/h (2 Bft) W-SW 247 4,7 C 3,6 C
08.01.2013 01:41 5,7 C 93 % 1024,7 hPa 0,0 l/m 8,3 km/h (2 Bft) W-SW 247 4,7 C 3,9 C
08.01.2013 01:46 5,8 C 93 % 1024,6 hPa 0,0 l/m 6,5 km/h (2 Bft) W-SW 247 4,8 C 4,5 C
08.01.2013 01:51 5,8 C 93 % 1024,7 hPa 0,0 l/m 6,1 km/h (2 Bft) W-SW 247 4,8 C 4,6 C
08.01.2013 01:56 5,8 C 93 % 1024,7 hPa 0,0 l/m 7,9 km/h (2 Bft) W-SW 247 4,8 C 4,1 C
08.01.2013 02:01 5,8 C 93 % 1024,8 hPa 0,0 l/m 4,0 km/h (1 Bft) S-SW 202 4,8 C 5,8 C
08.01.2013 02:06 5,8 C 93 % 1024,4 hPa 0,0 l/m 6,1 km/h (2 Bft) SW 225 4,8 C 4,6 C
08.01.2013 02:11 5,8 C 93 % 1024,4 hPa 0,0 l/m 4,3 km/h (1 Bft) SW 225 4,8 C 5,8 C
08.01.2013 02:16 5,8 C 93 % 1024,3 hPa 0,0 l/m 9,0 km/h (2 Bft) S-SW 202 4,8 C 3,8 C
08.01.2013 02:21 5,8 C 93 % 1024,3 hPa 0,0 l/m 5,8 km/h (2 Bft) W-SW 247 4,8 C 4,7 C
08.01.2013 02:26 5,8 C 93 % 1024,3 hPa 0,0 l/m 4,3 km/h (1 Bft) SW 225 4,8 C 5,8 C
08.01.2013 02:31 5,9 C 93 % 1024,3 hPa 0,0 l/m 5,0 km/h (1 Bft) S-SW 202 4,9 C 5,1 C
08.01.2013 02:36 5,9 C 93 % 1024,3 hPa 0,0 l/m 4,7 km/h (1 Bft) SW 225 4,9 C 5,2 C
08.01.2013 02:41 5,9 C 93 % 1024,3 hPa 0,0 l/m 4,0 km/h (1 Bft) S-SW 202 4,9 C 5,9 C
08.01.2013 02:46 5,9 C 93 % 1024,2 hPa 0,0 l/m 3,2 km/h (1 Bft) SW 225 4,9 C 5,9 C
08.01.2013 02:51 5,9 C 93 % 1024,3 hPa 0,0 l/m 3,2 km/h (1 Bft) S-SW 202 4,9 C 5,9 C
08.01.2013 02:56 5,9 C 93 % 1024,4 hPa 0,0 l/m 2,9 km/h (1 Bft) S-SW 202 4,9 C 5,9 C
08.01.2013 03:01 5,9 C 93 % 1024,4 hPa 0,0 l/m 4,0 km/h (1 Bft) W-SW 247 4,9 C 5,9 C
08.01.2013 03:06 5,9 C 93 % 1024,2 hPa 0,0 l/m 2,2 km/h (1 Bft) W-SW 247 4,9 C 5,9 C
08.01.2013 03:11 5,9 C 93 % 1024,3 hPa 0,0 l/m 2,5 km/h (1 Bft) SW 225 4,9 C 5,9 C
08.01.2013 03:16 5,9 C 93 % 1024,2 hPa 0,0 l/m 1,4 km/h (1 Bft) S 180 4,9 C 5,9 C
08.01.2013 03:21 6,0 C 93 % 1024,0 hPa 0,0 l/m 4,3 km/h (1 Bft) SW 225 5,0 C 6,0 C
08.01.2013 03:26 6,0 C 93 % 1024,1 hPa 0,0 l/m 3,2 km/h (1 Bft) W-SW 247 5,0 C 6,0 C
08.01.2013 03:31 6,1 C 93 % 1024,0 hPa 0,0 l/m 3,6 km/h (1 Bft) SW 225 5,1 C 6,1 C
08.01.2013 03:36 6,1 C 93 % 1024,1 hPa 0,0 l/m 5,4 km/h (1 Bft) W-SW 247 5,1 C 5,2 C
08.01.2013 03:41 6,1 C 93 % 1024,1 hPa 0,0 l/m 2,9 km/h (1 Bft) SW 225 5,1 C 6,1 C
08.01.2013 03:46 6,1 C 93 % 1024,0 hPa 0,0 l/m 4,3 km/h (1 Bft) SW 225 5,1 C 6,1 C
08.01.2013 03:51 6,1 C 93 % 1023,9 hPa 0,0 l/m 3,2 km/h (1 Bft) W-SW 247 5,1 C 6,1 C
08.01.2013 03:56 6,1 C 93 % 1023,9 hPa 0,0 l/m 5,0 km/h (1 Bft) SW 225 5,1 C 5,3 C
08.01.2013 04:01 6,1 C 93 % 1023,8 hPa 0,0 l/m 4,0 km/h (1 Bft) S-SW 202 5,1 C 6,1 C
08.01.2013 04:06 6,1 C 94 % 1023,7 hPa 0,0 l/m 6,1 km/h (2 Bft) SW 225 5,2 C 5,0 C
08.01.2013 04:11 6,1 C 93 % 1023,7 hPa 0,0 l/m 2,2 km/h (1 Bft) W-SW 247 5,1 C 6,1 C
08.01.2013 04:16 6,1 C 94 % 1023,6 hPa 0,0 l/m 4,0 km/h (1 Bft) W-SW 247 5,2 C 6,1 C
08.01.2013 04:21 6,1 C 94 % 1023,4 hPa 0,0 l/m 7,2 km/h (2 Bft) W-SW 247 5,2 C 4,6 C
08.01.2013 04:26 6,2 C 94 % 1023,4 hPa 0,5 l/m 2,9 km/h (1 Bft) SW 225 5,3 C 6,2 C
08.01.2013 04:31 6,2 C 94 % 1023,4 hPa 0,0 l/m 3,2 km/h (1 Bft) W-SW 247 5,3 C 6,2 C
08.01.2013 04:36 6,2 C 94 % 1023,4 hPa 0,0 l/m 3,2 km/h (1 Bft) SW 225 5,3 C 6,2 C
08.01.2013 04:41 6,2 C 94 % 1023,2 hPa 0,5 l/m 6,1 km/h (2 Bft) W 270 5,3 C 5,1 C
08.01.2013 04:46 6,3 C 94 % 1023,3 hPa 0,0 l/m 6,1 km/h (2 Bft) SW 225 5,4 C 5,2 C
08.01.2013 04:51 6,3 C 94 % 1023,2 hPa 0,0 l/m 2,9 km/h (1 Bft) SW 225 5,4 C 6,3 C
08.01.2013 04:56 6,3 C 94 % 1023,0 hPa 0,5 l/m 5,4 km/h (1 Bft) W-SW 247 5,4 C 5,4 C
08.01.2013 05:01 6,3 C 94 % 1023,0 hPa 0,0 l/m 4,0 km/h (1 Bft) W-SW 247 5,4 C 6,3 C
08.01.2013 05:06 6,3 C 94 % 1023,0 hPa 0,0 l/m 4,0 km/h (1 Bft) SW 225 5,4 C 6,3 C
08.01.2013 05:11 6,4 C 94 % 1022,9 hPa 0,5 l/m 5,4 km/h (1 Bft) W-SW 247 5,5 C 5,5 C
08.01.2013 05:16 6,4 C 94 % 1022,7 hPa 0,0 l/m 3,2 km/h (1 Bft) SW 225 5,5 C 6,4 C
08.01.2013 05:21 6,4 C 94 % 1022,6 hPa 0,0 l/m 2,5 km/h (1 Bft) SW 225 5,5 C 6,4 C
08.01.2013 05:26 6,4 C 94 % 1022,5 hPa 0,0 l/m 1,8 km/h (1 Bft) W 270 5,5 C 6,4 C
08.01.2013 05:31 6,4 C 94 % 1022,5 hPa 0,0 l/m 3,2 km/h (1 Bft) SW 225 5,5 C 6,4 C
08.01.2013 05:36 6,4 C 94 % 1022,5 hPa 0,0 l/m 3,6 km/h (1 Bft) W-SW 247 5,5 C 6,4 C
08.01.2013 05:41 6,4 C 94 % 1022,6 hPa 0,0 l/m 6,8 km/h (2 Bft) W 270 5,5 C 5,1 C
08.01.2013 05:46 6,4 C 94 % 1022,6 hPa 0,0 l/m 6,5 km/h (2 Bft) W-SW 247 5,5 C 5,2 C
08.01.2013 05:51 6,4 C 94 % 1022,6 hPa 0,0 l/m 3,6 km/h (1 Bft) W-SW 247 5,5 C 6,4 C
08.01.2013 05:56 6,4 C 94 % 1022,6 hPa 0,5 l/m 7,9 km/h (2 Bft) W 270 5,5 C 4,8 C
08.01.2013 06:01 6,4 C 94 % 1022,5 hPa 0,0 l/m 7,6 km/h (2 Bft) W-SW 247 5,5 C 4,9 C
08.01.2013 06:06 6,4 C 94 % 1022,7 hPa 0,0 l/m 5,0 km/h (1 Bft) W-SW 247 5,5 C 5,7 C
08.01.2013 06:11 6,5 C 94 % 1022,6 hPa 0,0 l/m 7,2 km/h (2 Bft) W 270 5,6 C 5,1 C
08.01.2013 06:16 6,5 C 94 % 1022,6 hPa 0,5 l/m 11,2 km/h (2 Bft) W-SW 247 5,6 C 4,2 C
08.01.2013 06:21 6,5 C 94 % 1022,6 hPa 0,0 l/m 10,1 km/h (2 Bft) W-SW 247 5,6 C 4,4 C
08.01.2013 06:26 6,5 C 94 % 1022,5 hPa 0,0 l/m 13,3 km/h (3 Bft) W-SW 247 5,6 C 3,9 C
08.01.2013 06:31 6,5 C 94 % 1022,6 hPa 0,0 l/m 6,5 km/h (2 Bft) W-SW 247 5,6 C 5,3 C
08.01.2013 06:36 6,5 C 94 % 1022,6 hPa 0,0 l/m 7,2 km/h (2 Bft) W-SW 247 5,6 C 5,1 C
08.01.2013 06:41 6,6 C 94 % 1022,5 hPa 0,5 l/m 12,6 km/h (3 Bft) W-NW 292 5,7 C 4,1 C
08.01.2013 06:46 6,6 C 94 % 1022,5 hPa 0,0 l/m 5,4 km/h (1 Bft) W-SW 247 5,7 C 5,8 C
08.01.2013 06:51 6,6 C 94 % 1022,5 hPa 0,0 l/m 10,8 km/h (2 Bft) W-SW 247 5,7 C 4,4 C
08.01.2013 06:56 6,6 C 94 % 1022,5 hPa 0,0 l/m 8,6 km/h (2 Bft) W 270 5,7 C 4,9 C
08.01.2013 07:01 6,6 C 94 % 1022,6 hPa 0,0 l/m 10,1 km/h (2 Bft) W-SW 247 5,7 C 4,5 C
08.01.2013 07:06 6,6 C 94 % 1022,6 hPa 0,0 l/m 12,6 km/h (3 Bft) W 270 5,7 C 4,1 C
08.01.2013 07:11 6,6 C 94 % 1022,6 hPa 0,5 l/m 13,7 km/h (3 Bft) W 270 5,7 C 3,9 C
08.01.2013 07:16 6,6 C 94 % 1022,4 hPa 0,0 l/m 17,3 km/h (3 Bft) W 270 5,7 C 3,4 C
08.01.2013 07:21 6,6 C 94 % 1022,5 hPa 0,0 l/m 5,0 km/h (1 Bft) W 270 5,7 C 5,9 C
08.01.2013 07:26 6,6 C 94 % 1022,4 hPa 0,0 l/m 16,9 km/h (3 Bft) W-SW 247 5,7 C 3,5 C
08.01.2013 07:31 6,6 C 94 % 1022,4 hPa 0,0 l/m 5,8 km/h (2 Bft) W 270 5,7 C 5,6 C
08.01.2013 07:36 6,6 C 94 % 1022,5 hPa 0,0 l/m 7,9 km/h (2 Bft) W-SW 247 5,7 C 5,0 C
08.01.2013 07:41 6,6 C 94 % 1022,3 hPa 0,0 l/m 14,4 km/h (3 Bft) W 270 5,7 C 3,8 C
08.01.2013 07:46 6,5 C 94 % 1022,3 hPa 0,0 l/m 6,1 km/h (2 Bft) W-SW 247 5,6 C 5,4 C
08.01.2013 07:51 6,5 C 94 % 1022,3 hPa 0,0 l/m 9,4 km/h (2 Bft) W-SW 247 5,6 C 4,6 C
08.01.2013 07:56 6,5 C 94 % 1022,3 hPa 0,0 l/m 10,1 km/h (2 Bft) W-SW 247 5,6 C 4,4 C
08.01.2013 08:01 6,5 C 94 % 1022,2 hPa 0,0 l/m 3,6 km/h (1 Bft) W 270 5,6 C 6,5 C
08.01.2013 08:06 6,5 C 94 % 1022,1 hPa 0,0 l/m 9,4 km/h (2 Bft) W-SW 247 5,6 C 4,6 C
08.01.2013 08:11 6,5 C 94 % 1022,2 hPa 0,0 l/m 4,3 km/h (1 Bft) W-SW 247 5,6 C 6,5 C
08.01.2013 08:16 6,5 C 94 % 1022,2 hPa 0,0 l/m 14,4 km/h (3 Bft) W-SW 247 5,6 C 3,7 C
08.01.2013 08:21 6,5 C 94 % 1022,2 hPa 0,0 l/m 8,6 km/h (2 Bft) W-SW 247 5,6 C 4,8 C
08.01.2013 08:26 6,5 C 94 % 1022,3 hPa 0,0 l/m 6,5 km/h (2 Bft) W 270 5,6 C 5,3 C
08.01.2013 08:31 6,5 C 94 % 1022,2 hPa 0,0 l/m 8,3 km/h (2 Bft) W 270 5,6 C 4,8 C
08.01.2013 08:36 6,5 C 94 % 1022,2 hPa 0,0 l/m 6,1 km/h (2 Bft) W-SW 247 5,6 C 5,4 C
08.01.2013 08:41 6,5 C 94 % 1022,2 hPa 0,0 l/m 7,6 km/h (2 Bft) W-SW 247 5,6 C 5,0 C
08.01.2013 08:46 6,5 C 94 % 1022,2 hPa 0,0 l/m 8,6 km/h (2 Bft) NW 315 5,6 C 4,8 C
08.01.2013 08:51 6,5 C 94 % 1022,1 hPa 0,0 l/m 16,9 km/h (3 Bft) W 270 5,6 C 3,3 C
08.01.2013 08:56 6,5 C 94 % 1022,1 hPa 0,0 l/m 5,8 km/h (2 Bft) W 270 5,6 C 5,5 C
08.01.2013 09:01 6,5 C 94 % 1022,0 hPa 0,0 l/m 12,2 km/h (2 Bft) W 270 5,6 C 4,0 C
08.01.2013 09:06 6,5 C 94 % 1022,1 hPa 0,0 l/m 9,4 km/h (2 Bft) W-SW 247 5,6 C 4,6 C
08.01.2013 09:11 6,5 C 94 % 1022,1 hPa 0,0 l/m 5,8 km/h (2 Bft) W-SW 247 5,6 C 5,5 C
08.01.2013 09:16 6,6 C 94 % 1021,9 hPa 0,0 l/m 16,9 km/h (3 Bft) W-SW 247 5,7 C 3,5 C
08.01.2013 09:21 6,6 C 94 % 1022,1 hPa 0,0 l/m 13,7 km/h (3 Bft) W 270 5,7 C 3,9 C
08.01.2013 09:26 6,6 C 94 % 1022,0 hPa 0,0 l/m 3,6 km/h (1 Bft) W 270 5,7 C 6,6 C
08.01.2013 09:31 6,6 C 94 % 1022,0 hPa 0,0 l/m 4,3 km/h (1 Bft) W 270 5,7 C 6,6 C
08.01.2013 09:36 6,6 C 94 % 1022,1 hPa 0,0 l/m 9,0 km/h (2 Bft) W-SW 247 5,7 C 4,8 C
08.01.2013 09:41 6,6 C 94 % 1022,1 hPa 0,0 l/m 4,3 km/h (1 Bft) W-SW 247 5,7 C 6,6 C
08.01.2013 09:46 6,6 C 94 % 1022,3 hPa 0,0 l/m 3,6 km/h (1 Bft) W 270 5,7 C 6,6 C
08.01.2013 09:51 6,6 C 94 % 1022,3 hPa 0,0 l/m 9,4 km/h (2 Bft) W 270 5,7 C 4,7 C
08.01.2013 09:56 6,6 C 94 % 1022,3 hPa 0,0 l/m 4,7 km/h (1 Bft) W-SW 247 5,7 C 6,0 C
08.01.2013 10:01 6,6 C 94 % 1022,2 hPa 0,0 l/m 13,3 km/h (3 Bft) W 270 5,7 C 4,0 C
08.01.2013 10:06 6,6 C 94 % 1022,2 hPa 0,0 l/m 9,4 km/h (2 Bft) W 270 5,7 C 4,7 C
08.01.2013 10:11 6,6 C 94 % 1022,3 hPa 0,0 l/m 1,4 km/h (1 Bft) W 270 5,7 C 6,6 C
08.01.2013 10:16 6,6 C 94 % 1022,3 hPa 0,0 l/m 6,5 km/h (2 Bft) S-SW 202 5,7 C 5,4 C
08.01.2013 10:21 6,6 C 94 % 1022,3 hPa 0,0 l/m 10,1 km/h (2 Bft) W-SW 247 5,7 C 4,5 C
08.01.2013 10:26 6,7 C 94 % 1022,3 hPa 0,5 l/m 18,0 km/h (3 Bft) W 270 5,8 C 3,4 C
08.01.2013 10:31 6,6 C 94 % 1022,3 hPa 0,0 l/m 7,2 km/h (2 Bft) W-SW 247 5,7 C 5,2 C
08.01.2013 10:36 6,7 C 94 % 1022,3 hPa 0,0 l/m 8,3 km/h (2 Bft) W-SW 247 5,8 C 5,1 C
08.01.2013 10:41 6,8 C 94 % 1022,3 hPa 0,0 l/m 7,9 km/h (2 Bft) W 270 5,9 C 5,3 C
08.01.2013 10:46 6,9 C 94 % 1022,4 hPa 0,0 l/m 10,4 km/h (2 Bft) W-NW 292 6,0 C 4,8 C
08.01.2013 10:51 7,1 C 94 % 1022,2 hPa 0,0 l/m 13,7 km/h (3 Bft) W 270 6,2 C 4,5 C
08.01.2013 10:56 7,2 C 94 % 1022,3 hPa 0,0 l/m 5,4 km/h (1 Bft) W-NW 292 6,3 C 6,4 C
08.01.2013 11:01 7,1 C 94 % 1022,2 hPa 0,0 l/m 1,1 km/h (1 Bft) W 270 6,2 C 7,1 C
08.01.2013 11:06 7,0 C 94 % 1022,3 hPa 0,0 l/m 7,6 km/h (2 Bft) W-SW 247 6,1 C 5,6 C
08.01.2013 11:11 7,0 C 94 % 1022,2 hPa 0,0 l/m 9,7 km/h (2 Bft) W-SW 247 6,1 C 5,1 C
08.01.2013 11:16 6,9 C 94 % 1022,1 hPa 0,0 l/m 7,9 km/h (2 Bft) W 270 6,0 C 5,4 C
08.01.2013 11:21 6,9 C 94 % 1022,1 hPa 0,0 l/m 10,1 km/h (2 Bft) NW 315 6,0 C 4,9 C
08.01.2013 11:26 7,0 C 94 % 1022,1 hPa 0,0 l/m 6,8 km/h (2 Bft) W-SW 247 6,1 C 5,8 C
08.01.2013 11:31 6,9 C 94 % 1022,1 hPa 0,0 l/m 6,1 km/h (2 Bft) W-SW 247 6,0 C 5,9 C
08.01.2013 11:36 6,9 C 94 % 1022,2 hPa 0,0 l/m 9,7 km/h (2 Bft) W 270 6,0 C 5,0 C
08.01.2013 11:41 6,9 C 94 % 1022,1 hPa 0,0 l/m 15,8 km/h (3 Bft) NW 315 6,0 C 4,0 C
08.01.2013 11:46 6,9 C 94 % 1022,1 hPa 0,0 l/m 5,0 km/h (1 Bft) W-SW 247 6,0 C 6,2 C
08.01.2013 11:51 6,9 C 94 % 1022,1 hPa 0,0 l/m 6,5 km/h (2 Bft) W-NW 292 6,0 C 5,8 C
08.01.2013 11:56 6,9 C 94 % 1022,0 hPa 0,0 l/m 7,9 km/h (2 Bft) W-NW 292 6,0 C 5,4 C
08.01.2013 12:01 6,9 C 94 % 1022,0 hPa 0,0 l/m 11,2 km/h (2 Bft) W-NW 292 6,0 C 4,7 C
08.01.2013 12:06 6,9 C 94 % 1022,1 hPa 0,0 l/m 6,1 km/h (2 Bft) W-NW 292 6,0 C 5,9 C
08.01.2013 12:11 6,9 C 94 % 1021,9 hPa 0,0 l/m 9,0 km/h (2 Bft) W 270 6,0 C 5,1 C
08.01.2013 12:16 7,0 C 94 % 1021,8 hPa 0,0 l/m 6,1 km/h (2 Bft) W-SW 247 6,1 C 6,0 C
08.01.2013 12:21 7,0 C 94 % 1021,8 hPa 0,0 l/m 5,0 km/h (1 Bft) W-NW 292 6,1 C 6,4 C
08.01.2013 12:26 7,0 C 94 % 1021,9 hPa 0,0 l/m 19,1 km/h (3 Bft) W-NW 292 6,1 C 3,7 C
08.01.2013 12:31 7,1 C 94 % 1021,8 hPa 0,0 l/m 6,5 km/h (2 Bft) W 270 6,2 C 6,0 C
08.01.2013 12:36 7,1 C 94 % 1021,7 hPa 0,0 l/m 6,8 km/h (2 Bft) W-NW 292 6,2 C 5,9 C
08.01.2013 12:41 7,1 C 94 % 1021,8 hPa 0,0 l/m 12,2 km/h (2 Bft) W 270 6,2 C 4,8 C
08.01.2013 12:46 7,2 C 94 % 1021,6 hPa 0,0 l/m 8,6 km/h (2 Bft) W-SW 247 6,3 C 5,6 C
08.01.2013 12:51 7,1 C 94 % 1021,7 hPa 0,0 l/m 14,4 km/h (3 Bft) W-SW 247 6,2 C 4,4 C
08.01.2013 12:56 7,1 C 94 % 1021,6 hPa 0,0 l/m 8,3 km/h (2 Bft) W 270 6,2 C 5,5 C
08.01.2013 13:01 7,1 C 94 % 1021,5 hPa 0,0 l/m 7,6 km/h (2 Bft) W-SW 247 6,2 C 5,7 C
08.01.2013 13:06 7,1 C 94 % 1021,6 hPa 0,0 l/m 6,1 km/h (2 Bft) W 270 6,2 C 6,1 C
08.01.2013 13:11 7,1 C 94 % 1021,5 hPa 0,0 l/m 7,6 km/h (2 Bft) W-SW 247 6,2 C 5,7 C
08.01.2013 13:16 7,2 C 94 % 1021,5 hPa 0,0 l/m 8,3 km/h (2 Bft) W-NW 292 6,3 C 5,6 C
08.01.2013 13:21 7,1 C 94 % 1021,5 hPa 0,0 l/m 8,6 km/h (2 Bft) W-NW 292 6,2 C 5,5 C
08.01.2013 13:26 7,1 C 94 % 1021,5 hPa 0,0 l/m 6,5 km/h (2 Bft) W-NW 292 6,2 C 6,0 C
08.01.2013 13:31 7,1 C 94 % 1021,5 hPa 0,0 l/m 6,8 km/h (2 Bft) SW 225 6,2 C 5,9 C
08.01.2013 13:36 7,1 C 94 % 1021,5 hPa 0,0 l/m 9,4 km/h (2 Bft) W-NW 292 6,2 C 5,3 C
08.01.2013 13:41 7,1 C 94 % 1021,3 hPa 0,0 l/m 5,0 km/h (1 Bft) W 270 6,2 C 6,5 C
08.01.2013 13:46 7,1 C 94 % 1021,3 hPa 0,0 l/m 7,6 km/h (2 Bft) W-NW 292 6,2 C 5,7 C
08.01.2013 13:51 7,1 C 94 % 1021,3 hPa 0,0 l/m 2,5 km/h (1 Bft) W-NW 292 6,2 C 7,1 C
08.01.2013 13:56 7,1 C 94 % 1021,4 hPa 0,0 l/m 5,0 km/h (1 Bft) NW 315 6,2 C 6,5 C
08.01.2013 14:01 7,1 C 94 % 1021,4 hPa 0,0 l/m 7,9 km/h (2 Bft) W-NW 292 6,2 C 5,6 C
08.01.2013 14:06 7,1 C 94 % 1021,4 hPa 0,0 l/m 7,2 km/h (2 Bft) W-NW 292 6,2 C 5,8 C
08.01.2013 14:11 7,1 C 94 % 1021,4 hPa 0,0 l/m 3,6 km/h (1 Bft) SW 225 6,2 C 7,1 C
08.01.2013 14:16 7,1 C 94 % 1021,3 hPa 0,0 l/m 7,9 km/h (2 Bft) W-NW 292 6,2 C 5,6 C
08.01.2013 14:21 7,1 C 94 % 1021,3 hPa 0,0 l/m 9,4 km/h (2 Bft) W 270 6,2 C 5,3 C
08.01.2013 14:26 7,1 C 94 % 1021,4 hPa 0,0 l/m 6,8 km/h (2 Bft) W 270 6,2 C 5,9 C
08.01.2013 14:31 7,1 C 94 % 1021,3 hPa 0,0 l/m 5,0 km/h (1 Bft) W 270 6,2 C 6,5 C
08.01.2013 14:36 7,1 C 94 % 1021,5 hPa 0,0 l/m 11,2 km/h (2 Bft) W-SW 247 6,2 C 4,9 C
08.01.2013 14:41 7,1 C 94 % 1021,4 hPa 0,5 l/m 8,3 km/h (2 Bft) W-NW 292 6,2 C 5,5 C
08.01.2013 14:46 7,1 C 94 % 1021,4 hPa 0,0 l/m 9,7 km/h (2 Bft) W-NW 292 6,2 C 5,2 C
08.01.2013 14:51 7,1 C 94 % 1021,4 hPa 0,0 l/m 5,8 km/h (2 Bft) W 270 6,2 C 6,2 C
08.01.2013 14:56 7,1 C 94 % 1021,3 hPa 0,0 l/m 8,6 km/h (2 Bft) W 270 6,2 C 5,5 C
08.01.2013 15:01 7,0 C 94 % 1021,4 hPa 0,0 l/m 4,0 km/h (1 Bft) W 270 6,1 C 7,0 C
08.01.2013 15:06 7,0 C 94 % 1021,3 hPa 0,0 l/m 5,4 km/h (1 Bft) W-NW 292 6,1 C 6,2 C
08.01.2013 15:11 7,0 C 94 % 1021,4 hPa 0,0 l/m 5,8 km/h (2 Bft) W-NW 292 6,1 C 6,1 C
08.01.2013 15:16 6,9 C 94 % 1021,5 hPa 0,0 l/m 5,0 km/h (1 Bft) W-NW 292 6,0 C 6,2 C
08.01.2013 15:21 6,9 C 94 % 1021,5 hPa 0,0 l/m 2,5 km/h (1 Bft) NW 315 6,0 C 6,9 C
08.01.2013 15:26 6,9 C 94 % 1021,6 hPa 0,0 l/m 5,4 km/h (1 Bft) W 270 6,0 C 6,1 C
08.01.2013 15:31 6,9 C 94 % 1021,6 hPa 0,0 l/m 9,4 km/h (2 Bft) W 270 6,0 C 5,1 C
08.01.2013 15:36 6,9 C 94 % 1021,7 hPa 0,0 l/m 5,4 km/h (1 Bft) W 270 6,0 C 6,1 C
08.01.2013 15:41 6,9 C 94 % 1021,8 hPa 0,0 l/m 6,1 km/h (2 Bft) W-NW 292 6,0 C 5,9 C
08.01.2013 15:46 6,9 C 94 % 1021,8 hPa 0,0 l/m 2,5 km/h (1 Bft) W 270 6,0 C 6,9 C
08.01.2013 15:51 6,9 C 94 % 1021,8 hPa 0,0 l/m 4,0 km/h (1 Bft) W-NW 292 6,0 C 6,9 C
08.01.2013 15:56 6,9 C 94 % 1021,8 hPa 0,0 l/m 2,5 km/h (1 Bft) W-NW 292 6,0 C 6,9 C
08.01.2013 16:01 6,9 C 94 % 1021,7 hPa 0,0 l/m 3,6 km/h (1 Bft) W 270 6,0 C 6,9 C
08.01.2013 16:06 6,9 C 94 % 1021,8 hPa 0,0 l/m 4,7 km/h (1 Bft) W-NW 292 6,0 C 6,3 C
08.01.2013 16:11 6,9 C 94 % 1021,9 hPa 0,0 l/m 4,7 km/h (1 Bft) W-NW 292 6,0 C 6,3 C
08.01.2013 16:16 6,9 C 94 % 1021,8 hPa 0,0 l/m 1,8 km/h (1 Bft) W 270 6,0 C 6,9 C
08.01.2013 16:21 6,9 C 94 % 1021,8 hPa 0,0 l/m 3,6 km/h (1 Bft) W 270 6,0 C 6,9 C
08.01.2013 16:26 6,9 C 94 % 1021,8 hPa 0,0 l/m 7,9 km/h (2 Bft) W-NW 292 6,0 C 5,4 C
08.01.2013 16:31 6,9 C 94 % 1021,8 hPa 0,0 l/m 5,0 km/h (1 Bft) W-NW 292 6,0 C 6,2 C
08.01.2013 16:36 6,9 C 94 % 1021,9 hPa 0,0 l/m 3,2 km/h (1 Bft) W 270 6,0 C 6,9 C
08.01.2013 16:41 6,9 C 94 % 1021,8 hPa 0,0 l/m 2,2 km/h (1 Bft) W-SW 247 6,0 C 6,9 C
08.01.2013 16:46 6,9 C 94 % 1021,8 hPa 0,0 l/m 4,0 km/h (1 Bft) W 270 6,0 C 6,9 C
08.01.2013 16:51 6,9 C 94 % 1021,8 hPa 0,0 l/m 3,2 km/h (1 Bft) W 270 6,0 C 6,9 C
08.01.2013 16:56 6,9 C 94 % 1021,8 hPa 0,0 l/m 9,4 km/h (2 Bft) W-NW 292 6,0 C 5,1 C
08.01.2013 17:01 6,9 C 94 % 1021,9 hPa 0,0 l/m 5,4 km/h (1 Bft) W 270 6,0 C 6,1 C
08.01.2013 17:06 6,9 C 94 % 1021,8 hPa 0,0 l/m 4,0 km/h (1 Bft) W 270 6,0 C 6,9 C
08.01.2013 17:11 6,9 C 94 % 1021,7 hPa 0,0 l/m 4,3 km/h (1 Bft) W 270 6,0 C 6,9 C
08.01.2013 17:16 6,8 C 94 % 1022,0 hPa 0,0 l/m 7,2 km/h (2 Bft) W 270 5,9 C 5,5 C
08.01.2013 17:21 6,9 C 94 % 1022,1 hPa 0,0 l/m 2,5 km/h (1 Bft) W 270 6,0 C 6,9 C
08.01.2013 17:26 6,9 C 94 % 1021,8 hPa 0,0 l/m 5,4 km/h (1 Bft) W-NW 292 6,0 C 6,1 C
08.01.2013 17:31 6,9 C 94 % 1021,8 hPa 0,0 l/m 7,6 km/h (2 Bft) W 270 6,0 C 5,5 C
08.01.2013 17:36 6,9 C 94 % 1022,1 hPa 0,0 l/m 4,7 km/h (1 Bft) W 270 6,0 C 6,3 C
08.01.2013 17:41 6,8 C 94 % 1022,1 hPa 0,0 l/m 7,2 km/h (2 Bft) W-NW 292 5,9 C 5,5 C
08.01.2013 17:46 6,8 C 94 % 1022,1 hPa 0,0 l/m 9,7 km/h (2 Bft) W-NW 292 5,9 C 4,9 C
08.01.2013 17:51 6,8 C 94 % 1022,0 hPa 0,0 l/m 3,2 km/h (1 Bft) W-NW 292 5,9 C 6,8 C
08.01.2013 17:56 6,9 C 94 % 1022,1 hPa 0,0 l/m 6,5 km/h (2 Bft) W 270 6,0 C 5,8 C
08.01.2013 18:01 6,9 C 94 % 1022,2 hPa 0,0 l/m 6,5 km/h (2 Bft) W-NW 292 6,0 C 5,8 C
08.01.2013 18:06 6,9 C 94 % 1022,1 hPa 0,0 l/m 5,8 km/h (2 Bft) W-NW 292 6,0 C 6,0 C
08.01.2013 18:11 6,9 C 94 % 1022,2 hPa 0,0 l/m 5,8 km/h (2 Bft) W 270 6,0 C 6,0 C
08.01.2013 18:16 6,9 C 94 % 1022,3 hPa 0,0 l/m 4,7 km/h (1 Bft) W 270 6,0 C 6,3 C
08.01.2013 18:21 6,9 C 94 % 1022,2 hPa 0,0 l/m 2,9 km/h (1 Bft) W-NW 292 6,0 C 6,9 C
08.01.2013 18:26 6,9 C 94 % 1022,2 hPa 0,0 l/m 7,6 km/h (2 Bft) W-NW 292 6,0 C 5,5 C
08.01.2013 18:31 6,9 C 94 % 1022,2 hPa 0,0 l/m 6,1 km/h (2 Bft) W-NW 292 6,0 C 5,9 C
08.01.2013 18:36 6,9 C 94 % 1022,2 hPa 0,0 l/m 6,1 km/h (2 Bft) W 270 6,0 C 5,9 C
08.01.2013 18:41 6,9 C 94 % 1022,1 hPa 0,0 l/m 8,3 km/h (2 Bft) W-NW 292 6,0 C 5,3 C
08.01.2013 18:46 6,9 C 94 % 1022,2 hPa 0,0 l/m 3,2 km/h (1 Bft) W-NW 292 6,0 C 6,9 C
08.01.2013 18:51 6,9 C 94 % 1022,1 hPa 0,0 l/m 2,5 km/h (1 Bft) W 270 6,0 C 6,9 C
08.01.2013 18:56 6,9 C 94 % 1022,2 hPa 0,0 l/m 2,5 km/h (1 Bft) W 270 6,0 C 6,9 C
08.01.2013 19:01 6,9 C 94 % 1022,1 hPa 0,0 l/m 7,6 km/h (2 Bft) W-NW 292 6,0 C 5,5 C
08.01.2013 19:06 6,9 C 94 % 1022,1 hPa 0,0 l/m 4,7 km/h (1 Bft) W-NW 292 6,0 C 6,3 C
08.01.2013 19:11 6,9 C 94 % 1022,2 hPa 0,0 l/m 2,2 km/h (1 Bft) W 270 6,0 C 6,9 C
08.01.2013 19:16 6,9 C 94 % 1022,4 hPa 0,0 l/m 5,0 km/h (1 Bft) NW 315 6,0 C 6,2 C
08.01.2013 19:21 6,9 C 94 % 1022,4 hPa 0,0 l/m 5,0 km/h (1 Bft) W 270 6,0 C 6,2 C
08.01.2013 19:26 6,9 C 94 % 1022,4 hPa 0,0 l/m 3,6 km/h (1 Bft) W 270 6,0 C 6,9 C
08.01.2013 19:31 6,9 C 94 % 1022,3 hPa 0,0 l/m 6,5 km/h (2 Bft) W-NW 292 6,0 C 5,8 C
08.01.2013 19:36 6,9 C 94 % 1022,3 hPa 0,0 l/m 5,4 km/h (1 Bft) W-NW 292 6,0 C 6,1 C
08.01.2013 19:41 6,9 C 94 % 1022,4 hPa 0,0 l/m 2,5 km/h (1 Bft) W 270 6,0 C 6,9 C
08.01.2013 19:46 6,9 C 94 % 1022,3 hPa 0,0 l/m 9,7 km/h (2 Bft) W-NW 292 6,0 C 5,0 C
08.01.2013 19:51 6,9 C 94 % 1022,4 hPa 0,0 l/m 6,8 km/h (2 Bft) W-NW 292 6,0 C 5,7 C
08.01.2013 19:56 6,9 C 94 % 1022,4 hPa 0,0 l/m 4,7 km/h (1 Bft) W-NW 292 6,0 C 6,3 C
08.01.2013 20:01 6,9 C 94 % 1022,5 hPa 0,0 l/m 4,3 km/h (1 Bft) W 270 6,0 C 6,9 C
08.01.2013 20:06 6,9 C 94 % 1022,5 hPa 0,0 l/m 4,0 km/h (1 Bft) W 270 6,0 C 6,9 C
08.01.2013 20:11 6,9 C 94 % 1022,6 hPa 0,0 l/m 3,6 km/h (1 Bft) W 270 6,0 C 6,9 C
08.01.2013 20:16 6,9 C 94 % 1022,4 hPa 0,0 l/m 2,9 km/h (1 Bft) W-NW 292 6,0 C 6,9 C
08.01.2013 20:21 6,9 C 94 % 1022,5 hPa 0,0 l/m 4,7 km/h (1 Bft) W 270 6,0 C 6,3 C
08.01.2013 20:26 6,9 C 94 % 1022,6 hPa 0,0 l/m 0,0 km/h (0 Bft) W-NW 292 6,0 C 6,9 C
08.01.2013 20:31 6,9 C 94 % 1022,5 hPa 0,0 l/m 6,1 km/h (2 Bft) W 270 6,0 C 5,9 C
08.01.2013 20:36 6,9 C 94 % 1022,6 hPa 0,0 l/m 2,5 km/h (1 Bft) W 270 6,0 C 6,9 C
08.01.2013 20:41 6,9 C 94 % 1022,6 hPa 0,0 l/m 0,0 km/h (0 Bft) W-NW 292 6,0 C 6,9 C
08.01.2013 20:46 6,9 C 94 % 1022,8 hPa 0,0 l/m 6,1 km/h (2 Bft) W-NW 292 6,0 C 5,9 C
08.01.2013 20:51 6,9 C 94 % 1022,5 hPa 0,0 l/m 2,2 km/h (1 Bft) W 270 6,0 C 6,9 C
08.01.2013 20:56 6,9 C 94 % 1022,6 hPa 0,0 l/m 4,3 km/h (1 Bft) W-NW 292 6,0 C 6,9 C
08.01.2013 21:01 6,9 C 94 % 1022,6 hPa 0,0 l/m 2,5 km/h (1 Bft) W 270 6,0 C 6,9 C
08.01.2013 21:06 6,9 C 94 % 1022,6 hPa 0,0 l/m 2,2 km/h (1 Bft) W 270 6,0 C 6,9 C
08.01.2013 21:11 6,9 C 94 % 1022,7 hPa 0,0 l/m 1,1 km/h (1 Bft) W 270 6,0 C 6,9 C
08.01.2013 21:16 6,9 C 94 % 1022,7 hPa 0,0 l/m 2,9 km/h (1 Bft) W-NW 292 6,0 C 6,9 C
08.01.2013 21:21 6,9 C 94 % 1022,6 hPa 0,0 l/m 4,0 km/h (1 Bft) W 270 6,0 C 6,9 C
08.01.2013 21:26 6,9 C 94 % 1022,6 hPa 0,0 l/m 2,5 km/h (1 Bft) W 270 6,0 C 6,9 C
08.01.2013 21:31 6,9 C 94 % 1022,6 hPa 0,0 l/m 1,4 km/h (1 Bft) W-NW 292 6,0 C 6,9 C
08.01.2013 21:36 6,9 C 94 % 1022,6 hPa 0,0 l/m 1,4 km/h (1 Bft) W-NW 292 6,0 C 6,9 C
08.01.2013 21:41 6,9 C 94 % 1022,5 hPa 0,0 l/m 2,5 km/h (1 Bft) W 270 6,0 C 6,9 C
08.01.2013 21:46 6,9 C 94 % 1022,5 hPa 0,0 l/m 2,9 km/h (1 Bft) W 270 6,0 C 6,9 C
08.01.2013 21:51 6,9 C 94 % 1022,6 hPa 0,0 l/m 3,2 km/h (1 Bft) W 270 6,0 C 6,9 C
08.01.2013 21:56 6,9 C 94 % 1022,6 hPa 0,0 l/m 2,9 km/h (1 Bft) W 270 6,0 C 6,9 C
08.01.2013 22:01 6,9 C 94 % 1022,6 hPa 0,0 l/m 3,6 km/h (1 Bft) W 270 6,0 C 6,9 C
08.01.2013 22:06 6,9 C 94 % 1022,6 hPa 0,0 l/m 3,2 km/h (1 Bft) W-NW 292 6,0 C 6,9 C
08.01.2013 22:11 6,9 C 94 % 1022,3 hPa 0,0 l/m 0,0 km/h (0 Bft) W 270 6,0 C 6,9 C
08.01.2013 22:16 6,9 C 94 % 1022,4 hPa 0,0 l/m 2,2 km/h (1 Bft) W 270 6,0 C 6,9 C
08.01.2013 22:21 6,9 C 94 % 1022,5 hPa 0,0 l/m 3,6 km/h (1 Bft) W-NW 292 6,0 C 6,9 C
08.01.2013 22:26 6,9 C 94 % 1022,5 hPa 0,0 l/m 3,6 km/h (1 Bft) W-NW 292 6,0 C 6,9 C
08.01.2013 22:31 6,9 C 94 % 1022,6 hPa 0,0 l/m 0,0 km/h (0 Bft) W 270 6,0 C 6,9 C
08.01.2013 22:36 6,9 C 94 % 1022,4 hPa 0,0 l/m 7,2 km/h (2 Bft) W 270 6,0 C 5,6 C
08.01.2013 22:41 6,9 C 94 % 1022,6 hPa 0,0 l/m 1,8 km/h (1 Bft) W 270 6,0 C 6,9 C
08.01.2013 22:46 6,9 C 94 % 1022,5 hPa 0,0 l/m 0,0 km/h (0 Bft) W-NW 292 6,0 C 6,9 C
08.01.2013 22:51 6,9 C 94 % 1022,5 hPa 0,0 l/m 6,1 km/h (2 Bft) W 270 6,0 C 5,9 C
08.01.2013 22:56 6,9 C 94 % 1022,6 hPa 0,0 l/m 0,0 km/h (0 Bft) W-SW 247 6,0 C 6,9 C
08.01.2013 23:01 6,9 C 94 % 1022,6 hPa 0,0 l/m 2,2 km/h (1 Bft) W 270 6,0 C 6,9 C
08.01.2013 23:06 6,9 C 94 % 1022,5 hPa 0,0 l/m 4,0 km/h (1 Bft) W 270 6,0 C 6,9 C
08.01.2013 23:11 6,9 C 94 % 1022,5 hPa 0,0 l/m 4,0 km/h (1 Bft) W-NW 292 6,0 C 6,9 C
08.01.2013 23:16 6,9 C 94 % 1022,5 hPa 0,0 l/m 0,0 km/h (0 Bft) W 270 6,0 C 6,9 C
08.01.2013 23:21 6,9 C 94 % 1022,6 hPa 0,0 l/m 2,5 km/h (1 Bft) W-NW 292 6,0 C 6,9 C
08.01.2013 23:26 6,9 C 94 % 1022,4 hPa 0,0 l/m 0,0 km/h (0 Bft) W 270 6,0 C 6,9 C
08.01.2013 23:31 6,9 C 94 % 1022,5 hPa 0,0 l/m 3,2 km/h (1 Bft) W 270 6,0 C 6,9 C
08.01.2013 23:36 6,9 C 94 % 1022,4 hPa 0,0 l/m 4,0 km/h (1 Bft) W 270 6,0 C 6,9 C
08.01.2013 23:41 6,9 C 94 % 1022,5 hPa 0,0 l/m 2,5 km/h (1 Bft) W 270 6,0 C 6,9 C
08.01.2013 23:46 6,9 C 94 % 1022,5 hPa 0,0 l/m 6,8 km/h (2 Bft) W 270 6,0 C 5,7 C
08.01.2013 23:51 6,9 C 94 % 1022,5 hPa 0,0 l/m 1,4 km/h (1 Bft) W 270 6,0 C 6,9 C
08.01.2013 23:56 6,9 C 94 % 1022,4 hPa 0,0 l/m 0,0 km/h (0 Bft) W-NW 292 6,0 C 6,9 C
_ Min-Zeit 00:01 00:01 13:41 - 00:06 - - 00:01 08:51
Minimum _ 5,6 C 93 % 1021,3 hPa - 0,0 km/h (0 Bft) - - 4,6 C 3,3 C
_ Max-Zeit 10:56 04:06 00:01 01:11 12:26 - - 10:56 11:01
Maximum _ 7,2 C 94 % 1026,0 hPa 0,5 l/m 19,1 km/h
W-NW (3 Bft)
- - 6,3 C 7,1 C
Durchschnitt _ 6,6 C 94 % 1022,6 hPa #5,7 l/m 5,8 km/h (2 Bft) W - 5,7 C 5,8 C
(c) by David Heller